Location: Burbank
(38.7788°N, 114.0429°W)
Time: 14:07:58
(UTC+00:00)

Injun/Solrad 3 - Pass Details

Date: 16 May 2026
Orbit: 867 x 989 km, 66.8° (Epoch: 8 June)

Event Time Altitude Azimuth Distance (km) Brightness Sun altitude
Rises 20:49:56 0° 151° (SSE) 3,491 11.0 64.3°
Reaches altitude 10° 20:54:16 10° 120° (ESE) 2,587 10.3 63.7°
Maximum altitude 20:56:18 12° 100° (E) 2,475 10.1 63.4°
Drops below altitude 10° 20:58:20 10° 80° (E) 2,621 10.1 63.1°
Sets 21:02:47 0° 51° (NE) 3,604 10.7 62.4°
